Theta_e
309 305 302 302 302 302 302 302 301 301 300 300 300 300 300 301 302 302 303 305 311 313 307 306 311 312 314 316 316 316 322 318 318 318 317 320 322 322 322 319 316 318 318 316 317 317 317
311 307 303 302 302 303 303 302 301 300 300 300 300 300 301 301 303 303 304 308 312 313 306 306 311 313 317 315 314 319 320 318 318 317 317 318 322 321 321 319 319 318 318 319 319 321 317
312 309 306 304 304 304 302 302 301 300 300 300 300 301 301 302 303 304 309 312 313 312 307 306 311 314 316 315 315 317 319 318 318 317 317 316 319 320 319 320 318 319 321 320 321 321 321
312 311 308 305 305 302 302 302 301 300 300 300 300 301 301 302 304 305 313 311 311 309 308 308 311 315 316 314 315 317 318 317 316 316 316 317 317 319 319 317 318 320 319 321 321 319 319
312 312 310 308 305 303 302 302 302 300 300 300 300 301 302 303 304 306 316 313 311 313 309 309 312 313 319 316 317 317 317 318 316 315 315 316 317 318 317 319 319 319 320 321 321 319 321
312 312 312 310 307 304 303 302 302 300 299 300 300 301 302 303 304 311 318 318 316 315 312 314 318 318 319 320 319 317 317 317 318 318 318 319 319 321 319 321 318 320 321 322 323 321 321
313 313 312 311 306 305 303 302 302 300 299 300 300 302 303 304 305 316 318 317 317 318 320 322 321 319 317 319 320 318 317 317 319 320 322 318 322 322 322 321 320 320 322 323 323 322 323
313 313 312 311 308 304 303 302 301 300 299 300 301 303 304 305 312 316 316 316 315 315 320 317 318 318 317 318 320 320 317 320 320 322 319 321 322 322 320 319 320 321 322 324 323 320 323
312 312 312 311 308 304 302 301 301 300 299 300 301 304 305 307 315 315 315 314 311 313 320 318 317 318 319 318 319 320 320 320 322 322 321 322 322 319 320 321 321 322 323 324 323 320 320
312 312 311 311 309 306 302 301 301 300 299 300 301 304 307 308 306 313 315 311 313 313 316 314 321 321 320 319 320 319 319 321 320 323 321 322 321 320 320 321 321 323 322 322 321 323 325
311 311 311 310 308 304 300 300 301 300 299 300 302 306 310 310 310 313 311 311 315 314 315 314 322 320 320 320 320 321 317 319 323 321 320 322 320 320 321 322 321 323 320 322 322 324 323
311 311 311 310 307 304 300 300 301 300 299 300 303 309 311 310 310 310 310 315 317 316 314 321 322 322 321 321 321 320 320 320 319 320 319 322 318 319 321 320 320 320 321 321 320 322 326
311 311 310 309 306 302 299 300 300 300 299 301 304 311 311 309 309 309 314 316 315 313 317 322 322 322 321 320 320 321 321 322 323 324 324 322 321 319 319 322 321 321 325 326 327 326 327
310 309 309 307 304 300 299 299 300 300 300 301 305 312 310 309 310 310 316 319 312 315 323 320 320 321 322 320 321 317 320 320 318 320 322 324 325 322 321 322 323 324 326 325 328 327 326
309 308 309 306 302 299 299 299 299 299 300 301 304 310 310 308 310 311 318 316 313 321 320 320 321 322 321 319 320 318 315 316 317 316 324 324 323 320 319 319 320 322 325 321 325 323 326
310 309 307 304 301 298 299 299 299 299 299 300 304 305 309 308 311 312 315 312 320 317 314 318 322 319 321 317 320 322 318 313 314 314 317 319 324 321 321 319 317 320 318 324 323 327 328
308 308 304 301 299 298 298 298 298 298 299 300 304 309 309 308 312 314 313 314 315 312 314 315 317 316 314 313 316 320 319 316 313 320 317 319 323 322 320 318 317 318 319 319 319 322 326
306 304 302 300 298 297 297 297 297 298 299 301 304 308 307 308 313 308 312 309 309 311 310 312 312 312 312 311 313 314 313 312 310 312 315 316 324 324 322 317 310 312 315 317 323 325 322
302 301 300 299 298 297 297 296 297 297 298 303 305 306 306 306 312 311 310 310 310 311 311 311 312 311 310 311 314 313 311 310 310 313 311 311 313 314 312 310 310 312 310 311 313 314 320
300 300 300 299 298 297 296 296 296 297 298 302 305 307 307 305 304 308 309 311 311 311 310 309 310 310 311 312 311 313 313 310 309 314 312 311 312 314 313 312 311 311 310 310 312 316 313
299 299 299 299 298 297 296 295 296 297 298 302 303 305 302 305 305 306 307 309 311 311 311 309 310 310 310 311 310 311 310 309 308 310 309 309 309 310 310 310 309 310 310 310 311 311 311
299 299 299 299 298 297 296 295 296 296 297 301 304 304 304 304 304 306 306 309 310 309 309 309 310 309 309 310 310 310 310 309 309 309 309 308 308 309 307 307 307 308 310 310 310 310 310
299 299 299 298 298 297 296 297 296 295 296 299 298 299 303 303 304 305 307 307 308 307 308 308 308 307 308 308 308 308 309 308 309 309 310 309 309 309 307 310 311 309 308 307 306 308 308
299 299 299 298 298 297 296 298 297 297 296 298 298 299 303 302 303 304 305 303 303 305 307 308 307 307 306 305 306 307 307 307 307 307 307 309 308 308 312 311 313 310 311 312 312 312 312
300 300 299 299 299 298 297 298 297 297 298 297 298 299 302 303 302 302 303 304 303 303 304 306 306 305 305 306 308 309 308 307 309 307 306 307 308 312 315 313 310 310 313 314 313 313 311
300 299 299 298 298 298 297 298 297 297 298 296 297 297 299 302 301 301 303 302 302 303 303 305 304 303 305 307 307 308 308 307 308 311 305 306 308 311 312 314 315 313 313 311 309 313 312
299 299 299 298 297 297 297 298 297 298 298 296 296 297 298 301 301 300 302 302 301 301 302 303 302 304 304 308 308 308 308 308 308 309 310 309 309 311 313 315 313 310 312 310 313 313 310
298 298 298 297 297 296 297 297 296 298 298 297 297 296 297 298 299 298 299 300 300 300 301 301 302 304 306 308 308 308 309 308 309 308 308 309 310 311 311 312 308 311 311 311 311 309 310
298 297 296 296 297 297 296 295 298 299 297 298 297 296 296 297 298 296 297 297 298 299 300 299 301 302 304 307 307 306 308 307 307 308 306 308 308 310 311 309 308 308 311 309 309 310 309
Wind_Speed
33 34 34 35 36 37 38 39 40 39 38 37 35 32 30 25 22 19 14 11 10 7 4 6 5 2 0 2 4 0 7 19 16 11 8 5 4 4 5 4 5 4 2 4 6 8 7
32 33 35 36 37 38 39 40 41 41 40 39 37 34 32 28 23 21 16 13 9 5 4 6 6 3 2 3 4 3 12 20 14 11 7 4 3 2 4 3 3 5 3 5 5 6 4
32 33 35 36 38 39 40 41 42 42 42 41 39 36 35 29 25 21 15 11 6 3 3 6 6 3 2 7 5 5 12 14 14 12 6 4 4 2 4 3 2 1 4 5 6 3 3
31 33 35 37 38 40 41 42 44 44 44 42 40 38 36 31 25 19 13 8 3 2 3 5 5 2 6 3 6 6 12 9 10 9 5 6 2 2 1 4 1 2 2 5 2 3 1
30 33 35 37 39 40 41 43 44 47 46 44 42 38 36 31 25 14 9 5 5 4 4 6 2 2 6 3 4 9 14 8 10 7 6 4 2 2 3 2 2 2 3 3 3 1 1
31 33 35 37 39 40 42 44 46 48 48 47 44 38 36 30 23 7 5 6 7 5 5 3 1 3 5 1 3 6 11 10 5 8 5 4 2 3 3 3 2 4 3 2 4 3 2
31 33 35 36 38 40 42 45 48 50 50 48 46 40 35 27 17 5 5 2 1 1 2 6 4 4 4 2 3 5 8 7 3 3 6 2 5 10 8 6 2 5 3 6 8 6 4
32 32 35 36 37 40 42 46 48 51 52 50 47 42 34 23 6 5 7 5 3 3 9 12 17 12 9 3 4 4 12 7 5 9 4 4 10 9 5 6 6 6 6 8 8 5 8
31 32 35 35 37 41 44 46 49 52 53 52 47 43 29 19 5 6 10 7 12 5 3 4 4 3 2 13 8 7 10 6 5 8 10 11 4 6 9 6 7 7 7 3 4 4 2
31 33 34 34 37 41 44 47 50 53 53 52 48 40 23 11 5 4 2 16 15 10 3 5 2 1 3 4 5 12 11 4 4 13 7 7 7 9 8 10 9 8 9 5 3 6 6
31 33 33 34 38 41 44 46 49 52 53 53 49 31 17 13 3 3 11 19 3 2 5 6 3 5 3 2 5 2 6 5 13 8 6 9 7 9 8 13 10 6 7 7 5 7 4
30 31 31 34 38 41 43 46 49 52 52 53 45 20 16 7 7 14 20 10 3 0 4 4 4 6 1 3 3 2 4 1 1 6 3 9 1 4 9 3 10 4 4 3 2 4 7
29 30 31 34 38 40 42 45 49 51 52 51 38 12 17 16 9 19 14 2 1 2 6 7 5 7 3 7 7 7 3 3 3 6 11 13 13 2 4 7 4 4 5 7 8 7 9
26 27 30 33 37 39 41 44 48 51 50 48 32 8 16 21 21 12 5 2 3 2 3 3 5 5 4 10 5 9 5 5 8 4 3 6 11 6 1 7 8 9 10 8 12 11 10
22 26 28 32 36 38 40 43 46 48 48 46 29 7 10 28 14 7 3 1 1 2 2 5 4 3 2 4 5 3 6 3 5 11 2 2 5 1 6 2 2 5 7 2 3 2 5
21 23 27 31 33 35 38 40 43 45 46 40 18 9 6 28 8 3 2 2 2 3 2 1 2 2 2 5 4 3 3 2 3 10 2 6 5 6 4 1 9 1 3 3 2 6 10
20 23 26 28 30 32 35 37 39 43 44 35 8 4 11 26 4 4 0 1 3 2 1 2 1 1 1 0 0 1 1 3 2 6 9 8 6 9 8 6 5 2 2 3 1 3 7
21 23 24 26 27 29 32 34 35 39 41 28 6 4 15 20 2 2 1 4 4 3 1 0 2 2 3 2 1 2 1 3 7 2 2 5 4 8 12 6 2 7 4 3 5 5 1
22 23 23 23 25 27 29 31 32 33 34 13 5 3 9 9 2 2 4 3 2 4 2 1 2 1 1 1 1 4 4 2 6 3 3 5 4 3 2 2 3 6 3 4 5 1 11
21 21 21 22 22 24 26 29 30 29 29 11 3 4 3 5 2 3 5 2 5 4 1 1 1 2 2 1 3 5 5 1 4 1 6 1 3 5 8 2 1 3 4 5 2 3 5
20 19 19 19 21 22 24 26 28 28 24 8 4 2 1 5 2 5 2 3 4 4 4 4 1 2 2 2 2 1 2 1 1 2 1 1 4 4 10 9 6 8 9 8 10 10 8
19 17 17 18 19 20 21 22 25 25 20 6 3 3 2 3 4 4 0 1 3 4 4 3 2 2 2 3 2 2 4 3 4 3 2 1 3 2 5 7 8 12 11 11 12 12 13
17 17 17 16 16 17 18 19 20 22 17 5 3 1 2 1 2 3 0 2 0 6 3 4 7 3 2 2 5 5 5 1 1 3 6 3 3 3 4 2 5 9 11 14 8 7 8
16 16 15 15 15 15 14 15 15 16 15 5 2 1 2 3 3 2 3 7 8 4 5 8 7 2 3 7 4 2 3 5 5 5 7 5 5 3 2 1 4 3 4 3 6 4 6
15 15 14 14 14 13 12 12 12 12 12 10 2 1 1 4 3 10 3 3 4 7 5 5 4 3 6 3 2 3 3 3 5 4 5 7 6 3 3 5 7 6 3 2 3 2 2
15 14 13 13 13 12 10 10 11 9 10 10 3 2 1 3 2 1 3 5 5 3 3 3 3 8 1 3 3 6 5 3 5 5 4 5 1 3 2 3 3 2 3 3 1 5 3
13 13 14 14 12 11 9 9 10 6 8 9 4 3 2 3 3 2 4 2 1 2 4 3 6 2 1 4 6 6 6 1 4 6 6 4 4 8 5 4 4 1 3 2 4 3 4
13 12 14 13 11 11 9 10 8 7 6 7 5 4 1 3 7 8 10 10 6 5 6 2 3 3 2 5 4 4 4 4 3 1 3 7 6 4 4 4 6 2 3 3 4 5 9
13 12 13 12 11 11 11 9 7 6 7 6 4 4 7 5 6 12 18 21 18 14 4 2 3 3 2 2 2 1 3 3 2 4 2 4 2 1 4 1 3 1 2 6 5 7 11
Wind_Direction
31 29 27 26 24 22 22 20 18 18 17 16 14 11 7 3 359 349 335 321 317 305 272 212 201 211 320 288 245 258 151 163 162 159 159 150 152 142 142 153 152 208 232 205 257 270 252
28 27 25 24 22 20 19 18 17 15 14 12 10 8 5 1 356 349 335 319 309 289 241 206 188 180 170 258 170 119 159 165 172 163 165 159 147 167 121 151 218 182 253 277 271 263 207
26 24 22 20 19 17 16 15 14 12 11 9 7 6 2 359 356 350 341 327 309 262 207 191 181 170 224 252 178 126 164 175 177 177 155 184 152 172 149 165 160 163 285 294 226 228 238
23 22 20 18 16 14 13 12 12 10 9 8 5 3 359 357 353 352 351 356 357 148 165 171 172 159 254 207 207 222 181 174 183 183 159 137 162 136 228 123 83 239 204 257 188 195 67
21 19 16 15 13 11 11 10 9 8 7 6 4 360 356 355 350 353 4 35 68 100 126 145 142 203 268 276 232 219 192 176 170 177 188 125 119 102 140 169 228 39 242 208 292 38 107
18 15 13 11 10 8 8 7 7 7 6 4 2 358 353 353 347 6 68 82 90 89 112 115 113 272 249 206 162 155 167 141 150 143 127 163 140 174 134 203 242 127 147 219 267 156 306
15 12 10 8 7 7 6 5 5 4 4 3 1 356 352 351 348 63 116 90 347 117 184 229 235 241 282 251 247 162 160 137 111 131 186 133 215 222 218 212 235 222 225 257 265 231 267
12 11 8 6 6 5 5 4 2 2 2 2 360 353 351 353 15 83 70 80 89 297 299 240 252 258 261 325 283 150 158 171 175 202 144 197 248 235 207 187 201 213 246 257 278 227 213
10 8 6 5 5 5 4 3 1 1 0 0 359 352 350 355 107 71 83 78 334 193 268 308 222 233 230 197 227 209 180 150 181 191 207 221 231 136 185 187 201 239 230 219 261 123 159
6 6 4 4 4 4 2 1 0 359 359 358 359 352 354 9 83 27 75 339 344 171 328 288 11 51 124 146 216 198 183 161 199 225 192 233 243 235 221 243 221 253 211 212 188 188 205
3 3 2 2 3 2 1 359 359 358 358 357 358 355 5 40 54 52 321 326 8 175 329 359 37 129 126 234 300 159 186 182 218 182 180 213 207 201 211 224 181 251 176 210 200 206 195
358 357 360 2 2 1 1 359 358 357 358 358 360 10 32 20 28 342 334 332 133 161 253 7 27 352 5 24 16 47 170 72 155 175 232 251 207 215 246 202 203 114 140 90 102 180 227
351 351 1 1 0 0 1 359 357 356 358 356 3 49 46 32 330 335 344 28 110 203 356 3 350 340 13 360 26 9 57 77 280 225 223 231 241 253 225 239 174 185 198 222 223 217 250
351 357 359 359 358 359 360 360 357 355 357 355 3 41 18 0 345 346 359 68 210 19 356 351 339 324 62 12 30 27 82 57 27 355 229 242 242 223 100 242 247 201 218 234 251 246 252
354 355 357 357 357 358 359 360 358 355 355 352 358 1 7 353 349 351 58 109 217 202 285 327 322 29 37 16 2 87 63 50 43 7 319 294 244 45 88 41 312 156 213 352 173 63 246
352 354 355 355 356 357 359 359 357 354 353 352 344 333 347 350 349 18 73 231 225 234 282 221 239 354 320 7 9 22 126 55 40 43 350 27 298 21 342 195 63 59 86 195 196 234 242
354 354 353 353 356 357 357 360 359 354 353 355 357 352 353 350 351 48 99 286 305 301 285 341 197 168 133 237 194 107 86 69 30 295 21 355 350 304 318 23 0 6 152 65 327 305 264
349 348 351 353 354 355 357 360 2 357 354 356 359 319 351 354 30 31 77 315 298 288 2 138 148 173 194 168 111 109 98 30 355 329 140 179 184 249 261 328 331 296 264 207 237 246 108
342 344 348 351 352 353 357 358 1 0 357 348 343 288 346 360 55 25 326 297 281 347 326 318 195 25 60 182 173 147 161 164 33 79 154 169 194 269 172 189 190 219 158 113 90 84 235
338 342 345 348 349 350 356 357 358 0 355 358 342 327 342 39 35 27 356 325 315 317 269 27 115 123 124 169 319 158 154 198 356 86 53 206 220 239 246 347 58 218 214 182 192 206 244
334 338 343 344 346 350 355 356 356 1 357 360 11 57 45 327 31 344 285 314 315 320 8 6 137 185 151 192 196 211 154 192 202 355 59 126 256 249 262 267 257 255 251 229 225 250 245
331 334 337 341 343 347 353 355 357 3 4 53 2 354 356 283 291 294 258 128 343 343 320 1 10 39 114 206 216 195 185 215 239 154 149 9 267 250 271 270 276 267 261 255 252 254 256
328 329 333 336 339 345 351 355 1 8 15 34 22 61 284 315 310 277 210 10 10 351 237 73 355 312 257 325 308 278 224 210 288 207 193 203 221 216 256 332 303 268 256 245 239 226 240
325 326 327 330 334 340 348 351 2 10 15 8 16 342 286 277 281 281 295 305 288 297 269 302 316 254 29 317 263 245 256 254 236 238 219 194 194 202 267 231 239 51 348 238 227 228 197
323 323 324 324 328 333 342 344 356 3 359 0 346 319 274 276 281 290 283 287 311 309 257 266 285 11 321 302 218 250 222 215 150 54 189 202 183 166 230 225 309 274 151 229 226 178 20
315 317 318 319 320 325 333 335 344 351 344 346 298 346 256 289 226 291 307 296 289 297 281 250 322 326 252 216 197 227 232 218 188 148 102 139 188 211 167 231 254 63 134 79 140 258 79
309 315 316 319 319 321 328 320 330 331 335 339 298 293 243 266 276 242 239 284 296 273 282 299 337 311 328 197 217 218 231 237 230 216 178 176 187 216 203 236 274 320 152 166 246 16 332
308 303 301 308 319 324 316 318 319 318 326 331 303 253 320 279 283 255 258 258 250 240 245 8 273 185 246 214 222 194 221 193 233 176 197 196 190 197 208 232 253 131 146 240 4 302 296
303 317 315 303 303 306 312 319 322 320 315 294 275 233 305 243 277 283 265 257 248 252 230 217 326 315 302 263 197 204 190 190 201 216 155 210 266 259 214 268 92 12 288 315 299 286 299